Wind_Speed
10 12 13 14 15 16 17 18 19 21 22 24 25 26 27 28 29 30 31 33 35 37 39 42 44 46 46 45 43 39 34 30 28 26 24 23 22 20 18 17 16 16 17 17 17 19 20 20 19 19 19 21 22 24 26 28 30 31 33 35 37 38 42 45 47 48 47 45 44 43 43 42 41 40 41 37 37 42 39 36 35 34 34 35 35 35 35 36
11 13 14 15 16 17 18 19 20 22 23 24 25 27 28 29 30 30 32 33 36 38 41 44 46 47 46 45 44 40 35 31 28 25 23 22 21 20 18 18 18 18 18 19 19 20 20 20 20 19 20 22 24 25 27 29 31 32 33 36 36 37 42 45 47 49 50 48 46 45 43 43 43 40 42 40 37 43 40 35 35 34 35 36 36 35 36 36
12 14 15 16 17 18 19 20 22 23 24 25 26 27 28 29 30 31 32 34 36 39 43 47 48 47 45 44 44 42 37 32 29 26 23 22 21 21 19 19 19 19 19 19 19 20 20 20 20 21 23 24 25 27 28 29 30 32 34 36 36 37 41 44 46 48 50 50 48 46 44 43 43 40 41 41 39 41 39 37 37 35 35 36 36 36 37 37
14 15 16 17 18 19 21 22 23 24 25 26 27 28 29 29 30 31 32 34 37 40 44 47 48 46 44 44 44 42 39 34 30 26 24 22 21 21 20 20 20 20 20 19 19 19 20 20 22 23 24 25 26 27 28 29 30 32 34 36 38 38 39 43 45 48 49 50 50 48 45 43 42 39 39 42 42 40 36 36 37 36 36 36 35 37 37 38
15 16 17 18 19 21 22 24 25 26 27 28 29 29 29 30 31 32 33 35 38 41 44 47 48 46 44 43 43 42 40 35 31 27 25 23 22 22 22 22 21 20 21 21 21 21 21 22 23 25 26 26 26 27 28 28 30 33 35 38 40 40 40 43 45 48 50 51 51 50 46 43 42 39 37 42 44 40 36 36 37 37 38 37 37 38 39 39
16 17 18 19 20 22 24 25 26 27 28 29 30 30 31 31 32 33 35 36 39 42 45 47 48 47 45 44 43 42 40 36 32 29 26 24 22 22 22 23 22 22 22 22 22 23 24 24 25 26 27 27 26 27 28 30 32 35 37 39 42 42 42 44 46 48 50 51 53 52 48 44 44 40 37 42 42 38 37 37 38 38 38 38 38 38 39 40
17 18 19 20 21 23 24 26 27 28 29 30 31 32 32 33 33 34 36 37 40 43 46 48 49 48 46 44 43 43 41 37 34 31 28 25 22 22 22 23 23 23 23 23 24 25 26 27 27 27 28 27 26 27 30 32 35 38 40 41 43 43 44 46 47 49 50 51 54 54 50 44 44 41 39 42 42 39 39 39 39 39 38 37 38 39 39 40
18 19 20 21 23 24 25 26 28 29 30 31 32 33 34 34 35 35 37 39 42 44 47 50 50 48 46 43 43 43 41 37 33 31 29 26 23 22 22 23 23 24 24 24 25 26 27 28 28 28 28 28 28 30 32 35 38 41 42 43 44 43 44 48 49 49 50 52 55 55 51 44 42 41 40 42 43 41 40 40 41 41 41 40 41 42 43 44
19 20 21 23 24 25 26 27 29 30 31 32 33 34 35 36 36 37 38 41 43 46 48 50 50 48 45 42 41 41 40 37 33 30 29 26 24 23 23 23 24 24 24 25 25 26 28 28 29 29 29 29 31 33 35 39 41 43 45 45 46 44 44 48 49 49 50 52 55 56 53 45 40 40 41 43 43 42 41 41 43 44 44 44 45 47 48 49
20 21 22 24 25 26 27 28 29 31 32 33 34 35 36 38 38 39 40 42 44 47 49 51 50 47 44 41 39 40 40 38 34 30 28 26 25 24 24 25 25 24 24 25 26 27 28 29 30 31 31 32 34 37 39 42 44 46 47 47 48 47 46 49 49 49 51 52 55 57 55 48 42 41 43 44 44 44 43 42 44 46 47 47 48 50 52 53
21 22 24 25 27 27 28 29 30 31 33 34 35 36 37 39 40 40 41 43 45 48 50 51 50 47 43 40 39 39 39 38 36 32 29 27 26 26 26 27 27 26 26 27 28 29 30 31 32 33 34 36 38 40 42 44 46 48 48 48 49 47 46 49 50 50 53 54 56 57 56 50 44 43 44 45 46 46 45 44 45 47 49 50 51 53 55 56
23 24 25 27 28 28 29 30 31 32 33 34 35 37 38 40 41 42 42 44 46 48 49 50 49 47 43 40 39 39 39 38 37 34 32 31 31 30 30 29 29 28 28 29 30 31 32 33 34 35 37 39 40 42 44 46 47 48 50 50 50 48 45 47 50 51 54 56 56 58 58 53 48 48 48 47 47 47 46 46 47 50 51 53 55 57 57 56
25 26 27 28 29 29 30 31 32 33 34 35 36 38 39 41 42 42 44 45 47 49 49 49 48 46 44 42 40 39 39 38 37 35 34 33 33 33 32 31 30 30 30 30 31 32 34 35 36 38 39 41 42 44 45 47 48 49 51 51 51 50 47 47 50 52 54 56 57 58 60 56 51 51 51 50 50 49 47 48 51 54 55 56 58 59 57 55
26 27 28 29 29 30 31 32 33 34 35 36 38 39 40 41 42 43 45 46 48 49 50 49 47 45 44 42 41 40 38 37 36 34 34 33 33 32 32 32 32 32 31 32 33 34 36 38 39 40 41 42 43 44 45 47 48 50 51 51 51 52 49 48 51 53 56 58 57 57 59 57 53 51 51 51 52 52 51 52 56 58 59 60 60 59 58 59
28 28 29 30 30 31 32 33 34 35 36 37 39 41 42 42 43 44 46 47 48 49 50 49 48 45 43 42 41 39 38 37 35 34 33 32 32 32 32 33 33 33 33 34 35 37 39 40 41 41 42 43 44 45 47 48 49 50 51 51 51 52 51 51 53 56 58 59 58 58 60 59 56 53 50 50 52 55 56 57 59 61 61 62 61 60 61 63
29 30 30 31 31 32 34 34 35 36 37 39 41 43 43 44 44 45 47 48 49 50 50 50 48 45 42 41 40 38 37 36 35 33 31 30 30 31 32 32 33 33 34 35 36 38 40 41 41 42 44 45 47 48 49 50 50 50 52 52 52 53 53 53 54 57 59 60 59 58 62 63 59 55 50 49 52 55 59 61 62 63 64 63 63 64 65 66
31 32 32 32 32 34 35 36 37 38 39 41 42 44 44 45 46 47 48 49 50 51 51 50 48 45 42 41 39 38 37 36 35 33 31 30 29 29 30 31 32 33 33 34 36 38 40 42 43 44 47 48 49 50 51 51 51 52 52 53 54 55 55 55 56 58 61 62 60 59 64 66 62 56 52 51 53 54 58 63 65 65 66 67 67 68 69 70
33 34 34 34 34 35 36 37 38 39 40 42 44 45 45 45 47 48 49 50 51 51 51 50 48 46 44 42 41 38 37 36 35 33 32 31 30 30 29 30 32 32 33 34 36 38 41 43 44 46 47 49 50 51 51 52 52 53 54 56 56 57 58 58 59 61 62 63 63 63 66 68 63 55 53 53 55 58 61 65 67 68 69 70 71 72 72 72
35 35 36 36 35 36 37 38 39 40 41 43 45 46 46 47 48 48 48 50 51 52 52 50 48 46 44 43 41 39 37 36 35 34 33 32 32 32 31 32 33 34 35 36 38 40 42 44 45 46 47 48 50 50 51 52 53 54 56 58 58 59 59 61 62 63 64 63 64 66 68 70 64 56 54 55 57 62 64 66 69 70 72 73 73 73 72 72
36 37 37 38 37 37 38 39 40 41 42 44 46 47 47 47 48 48 48 51 52 53 53 51 48 45 42 42 41 39 37 36 36 36 36 35 35 35 34 35 36 37 38 39 40 41 43 45 46 47 48 49 50 51 53 53 54 55 57 58 60 61 61 62 63 64 65 66 66 67 69 71 65 58 58 58 60 64 66 67 70 71 72 73 73 72 72 73
38 39 39 39 38 38 39 40 41 43 44 45 47 48 50 51 52 53 53 54 55 54 54 52 49 45 41 40 40 40 38 37 36 37 37 38 38 38 38 38 38 39 40 41 42 43 45 47 48 48 50 51 52 53 54 55 55 56 57 60 61 62 63 63 64 65 67 68 68 67 69 72 68 62 62 61 62 67 68 68 69 70 71 72 73 74 76 77
39 40 40 41 40 39 40 41 42 44 46 47 49 51 52 54 55 56 57 57 57 57 56 53 50 45 41 39 39 39 39 39 39 39 40 40 41 41 41 41 42 42 43 44 44 45 46 48 49 50 51 52 53 55 55 56 56 57 59 61 62 64 65 63 62 65 67 69 70 68 71 76 72 67 65 63 65 68 68 69 70 72 73 73 75 77 79 81
40 41 41 42 42 41 41 42 43 45 47 49 51 52 54 55 56 57 59 59 59 59 57 54 49 44 41 42 42 40 40 39 39 39 40 41 42 42 43 44 44 45 46 47 47 48 49 50 51 52 52 54 55 55 56 56 57 58 60 62 63 64 66 66 63 63 67 70 73 72 75 79 76 71 66 64 67 69 69 73 75 75 75 76 79 80 83 85
41 42 42 43 43 43 42 43 44 46 48 50 52 54 55 56 57 58 59 59 59 60 58 53 48 43 42 44 44 45 44 42 41 40 39 40 41 42 43 44 45 46 47 48 48 49 50 51 52 52 53 54 55 55 56 57 58 59 61 62 64 65 66 67 67 67 69 72 76 77 79 83 79 73 67 66 70 73 76 79 79 79 80 81 82 84 87 89
42 43 43 44 44 44 44 45 45 46 48 51 53 55 56 57 58 59 59 60 60 61 57 51 46 44 44 45 46 47 48 46 45 44 43 43 43 44 44 45 46 47 48 49 49 49 51 52 52 53 55 55 56 57 58 60 60 60 62 63 65 66 66 68 69 72 73 75 79 78 80 87 82 73 70 70 74 79 82 82 81 83 84 84 85 87 90 91
43 44 44 45 45 45 45 46 46 48 49 51 54 55 57 58 59 59 60 60 61 61 56 50 47 46 45 47 48 48 48 48 48 48 48 48 47 48 48 48 48 49 50 50 50 50 52 53 54 55 56 57 58 60 61 62 62 62 63 64 66 67 68 69 70 74 75 78 81 76 75 84 83 76 73 73 76 80 80 80 82 84 85 85 87 89 90 91
44 45 45 46 46 46 47 47 48 49 50 52 54 56 57 58 59 60 60 61 61 60 56 51 49 48 48 50 49 48 49 50 50 50 50 52 52 52 52 51 51 51 51 51 51 52 54 55 56 57 58 59 61 62 62 63 63 63 64 66 68 68 69 71 72 74 74 78 80 73 72 81 84 81 76 74 77 78 78 80 82 83 84 87 88 90 91 90
45 46 46 47 47 47 48 48 49 50 52 53 55 56 58 59 59 60 60 61 61 59 56 53 51 51 51 52 50 50 51 53 54 54 53 55 55 54 54 53 53 52 51 51 52 53 55 56 58 59 60 62 63 63 63 64 64 66 67 68 69 70 71 72 72 71 71 76 79 74 74 81 84 80 76 76 78 79 80 82 83 84 86 88 89 90 89 87
46 46 47 48 48 48 48 49 50 51 53 54 56 57 58 59 60 60 60 60 60 59 57 54 53 53 54 53 51 52 53 55 57 57 57 56 55 54 54 53 53 53 52 53 54 56 58 59 60 62 63 64 65 64 64 65 66 67 68 69 70 70 70 68 68 68 71 77 79 76 77 81 83 79 77 79 81 83 84 84 84 86 88 90 90 89 88 87
47 48 48 48 49 48 49 50 51 52 53 55 56 57 58 59 60 60 60 60 60 60 57 55 55 55 55 55 54 54 56 57 58 58 58 57 55 54 54 55 55 55 55 56 57 59 60 61 62 64 64 64 64 64 65 66 67 68 69 70 69 69 68 68 69 70 74 80 79 77 78 81 84 82 80 83 85 86 87 85 86 88 89 91 91 91 91 91
48 49 49 50 50 49 50 51 52 53 54 55 56 57 58 59 60 60 60 60 61 60 57 56 56 57 57 56 56 57 59 59 59 59 58 57 55 55 55 55 56 56 57 58 58 59 61 61 62 62 62 63 64 64 66 68 68 69 70 70 70 70 71 74 74 74 78 82 79 77 78 80 82 83 83 86 87 87 86 86 88 90 92 94 94 94 93 91
50 51 51 51 51 51 51 52 52 53 55 55 57 57 58 60 60 59 59 61 62 60 58 57 58 58 58 57 58 59 61 61 61 61 60 58 56 56 56 56 56 57 58 58 59 60 61 61 61 61 62 64 65 65 67 69 69 70 70 71 73 75 76 78 78 78 81 83 79 78 80 81 81 83 85 87 87 85 85 86 89 92 95 96 96 95 92 89
52 53 53 52 52 52 52 53 54 54 55 56 57 58 59 60 60 59 60 61 62 61 59 59 59 59 59 59 60 61 62 62 62 63 62 60 58 58 58 58 58 58 59 59 61 62 62 61 60 61 63 65 67 66 67 70 70 72 72 73 75 76 76 78 80 81 83 84 80 78 80 82 81 83 86 86 86 84 85 89 92 94 95 97 98 96 94 93
54 54 54 54 53 53 53 54 55 55 56 57 57 58 59 60 60 60 61 61 62 61 60 60 60 60 60 60 61 62 64 64 64 65 65 63 62 62 62 61 60 60 61 61 62 63 62 61 61 62 63 66 68 67 69 70 71 72 73 73 74 73 73 76 77 80 82 84 82 77 77 80 79 81 84 83 82 84 88 93 94 95 96 98 99 98 97 95
55 55 55 55 54 54 54 55 56 56 57 57 58 60 60 60 60 60 61 62 63 62 61 62 62 61 61 61 62 63 65 66 66 66 67 66 66 66 65 64 63 63 64 64 64 64 64 63 62 63 65 66 68 69 70 71 71 72 73 73 73 72 72 74 77 80 82 83 82 78 78 79 77 79 80 78 80 87 92 95 96 97 98 99 99 98 96 93
57 57 56 56 55 54 55 56 57 58 58 59 60 60 59 60 60 61 62 63 63 64 63 63 62 62 62 63 63 64 66 67 67 67 68 67 67 67 66 64 65 65 66 66 66 66 66 66 66 66 66 65 67 70 71 71 71 72 72 73 72 72 73 76 79 81 81 82 82 80 80 80 78 79 78 76 84 91 93 94 96 97 98 98 98 96 94 90
58 57 57 56 55 55 56 58 59 59 59 61 62 61 59 60 60 61 63 64 64 64 65 64 63 63 64 65 65 66 67 68 69 68 68 68 68 67 66 66 66 67 67 67 67 67 67 68 68 69 67 64 66 69 71 73 72 71 72 72 72 72 74 78 81 82 81 83 83 80 81 82 81 82 80 81 90 94 93 95 96 96 97 97 96 93 90 86
59 58 57 56 56 56 58 59 60 60 61 62 62 61 60 60 61 63 64 64 65 65 65 65 65 66 66 66 66 67 68 69 69 68 68 68 69 68 67 68 69 69 69 68 68 69 69 69 70 70 67 66 67 69 71 73 72 71 71 71 71 72 73 77 80 81 81 84 84 81 80 82 81 81 83 88 94 95 95 96 96 96 97 97 95 91 88 84
60 59 58 57 57 58 59 60 61 62 63 63 62 61 61 61 62 64 65 65 66 66 66 66 68 69 68 67 68 68 69 70 69 67 67 68 68 68 69 70 71 71 70 69 68 69 70 71 71 71 67 66 68 70 70 71 70 70 71 71 71 70 73 76 79 80 81 83 85 82 81 81 80 79 84 91 94 95 97 98 96 96 97 95 93 90 86 81
61 60 59 58 58 59 60 61 62 63 63 63 62 61 62 63 64 65 66 67 67 68 68 68 69 70 69 69 69 68 69 69 66 65 66 67 68 69 70 71 71 71 70 69 69 69 70 70 70 69 67 67 69 70 70 69 69 70 70 70 69 69 72 77 78 78 80 82 83 83 83 82 78 79 86 91 92 94 98 97 96 96 95 92 90 87 82 75
62 62 60 59 60 61 62 63 63 64 64 63 62 62 64 65 66 66 67 68 68 69 70 70 70 70 70 70 68 68 68 67 65 65 67 68 68 70 71 70 70 69 68 68 69 70 69 68 67 67 67 68 69 69 70 69 69 70 70 69 68 69 73 77 78 76 78 81 80 81 84 83 78 81 88 89 90 93 95 95 95 95 93 89 86 82 76 68
64 63 61 62 63 63 64 65 65 65 64 64 63 64 66 67 68 69 69 69 70 70 70 70 71 71 72 70 68 68 68 67 67 68 69 70 70 69 69 69 68 67 67 68 69 68 66 66 66 67 68 69 70 70 70 68 67 68 68 67 66 69 74 78 78 77 78 80 78 80 85 83 79 84 88 88 89 91 92 93 94 93 90 85 81 77 70 63
65 65 64 65 66 65 66 67 66 66 66 65 66 67 68 69 70 70 70 71 71 71 71 72 72 73 72 70 69 69 70 70 70 70 71 71 70 69 68 68 67 66 67 67 66 65 64 66 68 69 69 70 70 69 68 67 67 67 67 66 66 70 75 77 77 79 79 78 77 81 86 85 83 85 87 87 89 90 90 91 92 91 86 79 76 72 66 60
67 67 67 67 67 67 68 68 67 67 67 68 68 68 70 71 72 71 71 72 72 72 73 73 73 73 71 69 70 71 71 72 72 71 71 70 69 69 68 67 66 65 66 65 64 63 65 68 70 70 71 71 70 69 67 67 68 68 66 65 65 70 75 74 75 78 78 76 76 81 86 86 86 85 85 87 89 90 90 89 89 87 81 75 72 69 63 59
69 70 70 69 69 69 70 69 69 69 69 69 70 70 72 73 73 72 72 72 72 74 75 75 75 73 70 70 72 73 73 73 72 71 70 70 69 68 67 66 64 64 64 63 63 65 67 69 70 71 72 72 70 68 67 68 69 67 64 61 64 70 73 73 74 75 76 75 74 78 84 88 87 85 85 87 89 90 90 88 87 83 76 72 70 66 60 57
72 73 73 71 70 71 71 71 71 71 71 71 73 74 74 75 74 73 73 73 73 75 76 77 76 72 70 71 73 73 74 74 72 71 70 70 68 67 66 64 63 62 62 62 64 67 69 70 70 70 71 71 70 67 66 68 69 67 62 59 63 69 71 72 74 73 74 75 74 75 82 88 87 85 86 88 88 90 90 88 85 80 74 72 70 65 60 57
74 74 73 72 72 73 73 73 73 73 74 75 77 77 77 77 76 74 74 75 75 76 78 78 76 71 70 72 73 74 75 74 72 71 71 69 68 66 64 63 62 62 62 63 66 68 70 70 70 70 69 70 69 66 65 68 70 67 62 59 62 68 70 71 72 72 73 75 76 76 80 86 86 85 87 88 88 89 88 86 83 78 75 75 72 68 62 57
75 75 74 73 75 75 76 76 76 77 78 79 80 80 80 79 77 75 76 76 76 76 77 78 75 72 72 75 76 77 75 72 71 71 70 69 67 64 62 62 62 63 64 66 67 69 70 70 70 70 69 69 69 65 64 69 70 66 62 61 65 68 68 68 69 70 71 73 76 78 80 83 84 84 86 87 88 89 86 82 79 74 73 75 73 68 62 59
76 76 75 76 77 78 79 79 79 80 80 81 81 81 81 79 77 77 77 77 76 76 77 77 75 74 77 79 79 76 72 69 70 70 69 67 64 62 61 62 63 64 66 67 68 69 70 70 69 69 69 69 68 65 65 69 70 65 60 61 67 68 66 65 66 68 69 71 74 78 79 80 80 82 85 86 86 86 82 77 74 71 71 72 70 65 62 61
78 77 77 79 81 82 82 81 82 83 82 82 82 81 80 80 79 79 78 77 77 77 77 77 76 77 79 78 75 71 68 68 69 68 65 63 61 60 60 62 64 65 67 68 69 70 70 70 69 69 69 68 66 65 67 69 69 64 59 61 66 66 63 63 65 68 70 71 73 75 77 77 77 80 83 84 85 84 80 74 71 71 71 70 67 65 64 64
80 80 80 81 82 83 84 83 84 84 84 83 83 82 82 81 79 78 78 78 77 77 76 76 76 75 74 72 69 67 66 67 66 64 61 60 58 59 61 62 64 66 67 68 69 70 70 70 69 69 69 67 65 66 67 68 68 64 58 61 65 63 62 62 63 67 71 71 72 74 75 77 78 80 83 84 84 84 79 72 69 71 73 71 68 68 67 64
83 83 82 83 83 84 85 85 85 86 85 83 82 81 81 79 77 77 79 78 76 74 74 73 72 70 68 67 66 65 66 65 63 61 60 59 58 59 61 62 63 65 66 68 69 70 70 70 68 69 69 66 64 66 66 66 67 61 56 60 64 63 62 62 62 66 69 69 71 73 74 77 79 81 83 84 84 83 78 70 68 73 77 76 74 71 69 66
Wind_Direction
305 309 311 314 317 321 325 330 334 334 335 337 338 338 338 339 338 337 337 339 339 340 340 339 339 337 336 335 335 336 334 331 326 321 316 314 318 324 327 324 317 309 307 310 312 311 311 312 315 319 323 329 332 332 332 332 333 335 336 336 337 336 334 336 336 334 333 330 329 329 330 329 328 330 329 330 326 322 327 329 329 329 326 325 324 323 319 316
303 305 307 311 314 318 323 327 331 332 333 335 336 337 338 337 336 336 338 339 339 340 340 339 339 338 336 334 335 337 336 334 327 321 315 310 311 316 319 318 316 313 312 313 313 313 313 315 318 323 328 332 334 333 334 333 334 336 336 336 337 337 334 335 335 333 333 332 331 330 330 330 329 331 329 330 326 322 330 332 332 333 328 326 325 322 318 315
300 301 304 309 313 317 321 325 328 330 332 333 335 336 336 335 335 336 337 338 339 340 340 340 339 338 336 335 335 336 336 334 329 322 314 307 305 309 313 312 312 313 314 315 314 314 316 319 321 325 329 331 333 333 334 334 335 336 336 335 336 338 335 334 334 332 333 333 333 332 332 333 331 332 331 331 326 325 333 333 331 333 329 326 322 318 316 312
296 298 302 307 312 316 321 324 327 330 332 332 334 335 334 334 335 336 336 337 338 339 339 340 340 339 336 335 335 335 336 335 331 326 317 309 304 305 308 309 309 309 311 311 310 311 315 319 321 324 327 328 330 331 334 335 336 335 335 334 335 338 335 333 334 332 333 333 333 334 336 336 334 334 333 331 328 329 333 331 329 330 329 326 320 316 313 310
294 296 301 306 312 318 321 324 326 329 331 332 333 333 333 333 334 335 335 337 338 338 338 339 340 339 337 335 335 336 336 334 333 331 325 316 307 302 304 305 306 306 305 304 305 307 311 316 319 321 323 325 328 331 333 334 334 333 333 334 334 337 335 333 334 333 334 334 333 335 338 339 337 338 335 330 329 331 331 330 329 329 329 327 321 317 313 310
293 296 300 306 313 318 321 323 325 328 330 331 331 331 332 333 334 334 335 336 336 336 337 338 339 338 336 335 335 336 336 334 334 334 330 323 313 304 301 302 304 303 302 302 303 304 307 312 316 318 320 323 326 329 330 329 330 330 331 332 333 335 335 334 334 333 334 333 332 334 337 339 339 339 334 329 329 330 329 329 329 329 328 325 320 316 312 309
294 296 300 306 313 318 320 321 323 326 329 330 329 329 330 332 332 333 334 334 334 335 335 336 336 336 335 334 334 335 336 335 334 334 331 327 319 310 302 301 301 301 300 300 300 302 305 310 314 317 318 320 323 325 325 325 325 326 328 330 331 334 335 334 333 332 332 333 332 332 335 338 338 338 332 328 328 327 326 327 326 326 325 321 317 312 308 306
295 297 301 307 313 316 318 320 322 325 327 328 328 328 329 330 330 331 332 333 333 333 334 334 333 333 334 333 332 333 335 334 333 332 331 327 321 315 307 301 299 298 298 298 300 303 306 310 313 315 316 317 320 321 321 321 322 322 325 327 329 333 335 333 331 330 331 332 331 331 334 336 337 336 331 328 328 324 323 324 323 323 321 318 314 310 307 305
294 297 301 307 311 314 316 319 322 324 325 326 326 327 327 328 328 330 332 333 332 332 332 333 333 333 332 332 331 331 332 332 332 330 329 327 321 316 310 304 300 298 299 301 303 305 307 310 311 312 314 315 317 318 318 318 318 319 322 325 328 333 335 332 330 329 329 330 329 329 332 334 335 334 328 326 326 323 323 324 322 320 318 316 312 309 307 307
294 297 302 306 309 312 315 318 321 322 323 324 325 326 326 325 326 329 331 332 331 331 332 333 334 333 331 330 329 330 330 330 331 330 328 326 321 317 312 307 303 301 302 303 304 306 307 308 309 310 312 314 315 316 316 315 316 317 320 324 328 332 332 329 328 327 327 328 327 327 329 333 334 331 327 326 325 323 323 324 321 319 317 315 312 309 309 310
295 298 302 306 308 311 314 317 320 321 322 323 324 324 323 323 325 328 330 330 329 330 332 334 334 333 332 330 329 329 329 329 330 329 326 324 321 319 315 311 308 305 305 305 305 306 306 306 307 309 311 313 314 314 315 314 315 317 320 325 328 330 330 327 326 325 325 326 325 324 326 331 333 328 326 325 324 322 323 323 321 319 317 315 313 311 312 314
296 299 302 305 308 311 314 317 319 320 321 322 322 321 321 322 324 327 328 328 328 329 332 334 335 335 334 330 329 328 328 328 328 327 325 322 320 319 317 314 311 309 307 306 306 305 305 306 307 309 311 313 313 314 315 314 316 318 321 324 326 328 329 326 325 325 325 325 325 323 324 329 330 326 326 325 324 323 324 324 320 318 317 315 314 314 315 316
297 300 302 305 308 310 313 316 317 318 319 320 320 320 320 321 323 325 327 327 327 328 331 334 335 335 333 331 328 326 325 325 325 325 323 320 318 316 315 314 311 309 308 306 306 305 305 306 308 311 312 312 313 314 315 315 318 320 322 323 323 324 327 326 324 324 324 324 324 323 323 327 328 326 325 324 323 322 323 322 319 317 316 315 316 316 316 316
297 299 302 304 307 309 312 314 315 317 318 319 319 319 319 320 322 324 325 325 326 327 330 334 334 333 332 330 326 324 323 323 323 322 320 318 315 314 312 311 310 309 307 306 306 306 306 307 309 311 311 311 313 314 316 317 320 321 321 322 321 321 323 325 324 322 322 321 322 321 322 325 328 326 324 323 322 321 322 320 317 316 316 316 317 317 316 317
296 299 301 304 306 307 310 312 313 315 317 318 318 318 318 320 321 323 324 324 325 326 330 332 332 331 330 328 325 322 321 321 321 320 319 317 315 312 310 309 309 309 308 307 307 307 307 308 310 311 311 311 314 316 317 319 320 320 319 320 321 319 320 322 322 320 320 319 320 320 321 325 328 326 325 324 322 320 320 318 315 315 316 316 317 317 317 316
296 298 300 302 304 305 308 310 312 313 315 317 317 317 318 319 321 322 323 324 324 326 328 330 330 328 327 327 324 321 319 319 319 319 318 317 315 311 309 309 309 309 309 308 308 308 308 309 310 312 312 313 314 315 316 317 318 319 318 319 319 319 318 318 318 319 318 318 319 321 321 324 328 327 324 323 321 319 317 315 315 316 316 316 317 317 316 315
295 296 298 300 302 304 306 309 311 312 314 315 315 316 317 318 319 321 323 323 324 326 326 327 327 325 324 325 324 321 319 318 317 318 319 317 314 311 310 309 308 308 310 310 310 310 310 311 313 313 313 313 313 312 313 314 315 317 317 318 318 318 317 316 316 317 317 318 319 321 322 325 328 326 323 321 320 317 314 313 313 315 315 316 316 315 315 314
293 295 296 299 301 303 305 308 310 312 313 313 313 315 316 317 318 321 323 323 323 324 324 325 325 324 323 324 324 322 320 317 316 317 318 316 313 311 311 310 309 310 312 313 313 314 314 314 314 314 313 313 312 312 312 313 313 315 316 317 317 317 318 317 317 317 317 317 319 322 322 324 327 324 321 322 321 318 315 313 313 313 314 314 314 313 313 313
292 294 295 297 300 303 305 307 309 310 311 312 312 313 315 317 318 320 321 320 320 321 323 324 324 323 321 322 323 322 321 318 316 315 315 314 312 312 312 311 311 312 315 316 316 316 315 314 314 313 313 312 312 313 313 313 314 316 316 317 317 317 318 318 318 318 317 317 319 321 321 323 326 323 320 321 320 317 315 314 313 312 313 313 313 312 313 312
291 292 294 297 299 303 305 306 308 308 309 310 311 312 312 314 314 314 316 318 319 321 324 324 324 322 320 320 321 321 321 319 316 315 313 312 312 313 313 313 314 314 315 317 317 316 313 312 312 312 313 313 313 314 314 315 316 317 317 317 317 317 317 317 318 318 318 318 319 320 320 323 326 322 320 323 320 316 314 314 313 312 313 313 313 313 313 312
290 292 294 296 299 302 304 305 307 307 307 309 310 310 311 311 312 313 316 319 321 323 325 324 322 322 320 320 320 319 320 319 318 315 312 311 310 310 312 313 313 312 313 314 314 314 312 312 313 313 314 313 314 314 314 316 316 317 317 317 317 316 316 317 318 318 318 318 319 320 320 322 324 322 323 324 320 316 315 314 313 313 314 314 314 314 314 313
289 291 293 295 298 301 302 304 305 306 306 308 309 310 311 312 313 315 317 319 322 325 325 324 322 321 320 318 318 317 318 319 319 318 316 314 312 311 311 311 311 310 311 312 313 313 313 313 314 314 314 314 314 314 315 316 317 317 317 317 316 315 315 316 317 317 317 317 319 320 321 321 321 322 325 326 320 317 316 315 315 315 315 315 315 315 314 314
288 290 293 295 297 299 301 303 304 305 306 307 309 310 310 311 313 315 316 318 322 325 325 323 321 321 319 318 319 318 317 318 318 319 319 317 315 313 311 310 310 310 311 311 312 313 313 313 314 314 313 313 314 314 315 317 317 317 317 316 316 315 316 316 316 316 317 319 320 321 321 319 319 321 326 326 320 318 318 317 317 317 317 317 317 316 316 315
288 290 292 294 296 298 300 302 303 305 305 306 307 308 309 311 312 314 316 318 322 324 324 322 320 320 318 318 320 319 318 318 318 318 319 317 316 315 312 311 310 309 309 310 312 312 312 312 312 312 312 313 313 314 316 317 318 318 317 317 316 316 316 316 318 317 318 320 321 322 321 318 319 323 328 328 321 320 321 320 320 320 320 320 319 318 317 316
287 289 291 293 295 297 299 301 303 304 305 305 306 307 309 311 312 314 316 318 321 323 323 320 319 318 318 318 319 319 319 319 318 318 318 318 318 317 316 314 312 311 311 311 313 313 312 311 311 311 312 313 313 315 316 318 319 318 317 317 316 317 317 317 319 320 321 322 321 324 322 318 321 325 329 329 322 321 322 321 321 321 321 321 319 318 316 314
286 289 291 293 295 297 298 300 302 303 304 305 306 307 308 310 311 313 316 318 321 322 321 319 318 317 317 318 318 318 319 319 317 317 317 317 317 317 317 317 315 315 314 314 314 313 312 311 311 311 312 313 314 316 317 318 319 318 317 317 316 317 318 319 321 322 325 324 323 326 323 320 323 327 329 327 321 321 321 320 321 321 320 319 317 316 314 312
286 288 291 292 294 296 297 299 301 302 304 305 305 306 308 309 310 313 315 317 320 321 319 318 317 316 316 317 317 317 318 318 317 316 316 316 316 316 316 316 316 316 316 316 315 314 312 312 312 313 314 314 315 316 318 319 318 317 317 316 316 318 320 322 323 325 327 325 323 324 322 320 323 326 328 325 321 321 321 321 322 321 319 317 316 314 312 310
285 288 289 291 293 294 296 298 299 301 302 303 304 305 307 308 310 313 315 317 319 319 318 317 315 314 315 316 316 317 318 319 317 317 317 316 316 315 314 314 315 316 317 316 316 315 314 314 314 314 314 315 316 316 318 318 318 317 316 316 318 320 322 322 324 325 325 323 322 322 321 320 322 325 326 324 321 322 323 324 324 321 319 316 315 313 311 309
285 287 288 289 291 293 295 297 298 299 301 301 302 304 305 307 309 311 313 315 316 316 316 314 313 313 314 314 315 317 318 319 318 318 318 317 316 316 315 313 314 315 316 316 317 316 315 315 314 314 315 316 316 317 318 317 316 316 315 316 318 320 321 321 322 324 323 322 321 321 322 321 321 324 325 324 324 324 326 326 324 321 318 316 314 312 309 307
285 286 287 288 290 292 294 295 296 298 299 300 301 302 304 305 307 310 312 314 314 314 314 311 311 312 313 313 314 316 318 318 319 319 318 317 316 316 315 314 314 315 315 316 316 315 315 314 314 314 315 315 315 316 316 315 315 315 315 316 318 319 320 319 321 322 322 321 320 322 323 321 322 326 327 326 326 326 327 326 323 320 317 315 313 310 308 307
285 286 287 288 289 291 292 293 295 297 297 299 299 300 302 303 306 308 311 312 312 312 311 309 310 311 312 313 313 314 316 318 319 319 318 316 315 314 313 313 313 314 315 315 315 314 314 315 315 314 314 314 314 315 316 315 314 315 316 317 318 318 319 319 320 322 321 320 320 322 322 321 324 327 327 326 326 327 328 325 320 318 316 315 313 311 310 310
284 285 286 287 288 289 290 292 294 295 296 297 298 298 300 301 304 308 309 310 311 310 309 309 310 310 311 311 311 313 315 316 317 318 317 315 313 312 312 313 315 315 316 316 315 315 316 316 316 315 315 314 315 315 315 315 315 315 316 318 319 320 320 320 322 322 320 319 321 322 322 323 326 327 326 327 327 328 327 321 317 316 316 315 313 312 311 311
283 284 285 286 287 288 290 292 293 294 295 296 296 297 298 300 304 307 308 309 309 309 308 308 309 309 310 310 311 312 313 314 315 316 316 314 313 312 312 314 316 317 317 316 315 316 316 317 316 315 315 314 315 315 315 315 315 315 317 319 320 321 322 322 323 321 318 317 320 323 322 324 328 327 326 327 328 327 323 318 316 316 315 314 313 312 312 313
282 283 285 286 287 288 289 291 292 294 294 294 294 295 296 300 304 306 306 307 308 307 306 307 308 309 309 309 310 311 312 312 312 313 315 314 314 314 313 315 317 318 318 317 316 316 317 317 316 314 314 314 314 314 315 314 314 315 318 319 320 321 322 322 321 318 315 316 320 323 323 324 328 327 325 327 327 324 319 317 317 317 316 315 315 314 315 317
282 283 284 285 286 287 288 290 292 292 292 293 293 293 297 301 303 304 305 306 306 306 306 306 308 308 308 308 309 310 310 310 310 312 315 316 315 315 314 315 318 318 318 317 316 316 316 316 315 313 313 314 314 313 313 314 314 316 318 319 320 321 321 320 318 315 314 316 321 324 323 325 327 325 325 327 325 321 318 319 320 319 318 317 316 317 318 318
281 282 283 284 285 287 288 290 291 291 291 291 291 294 298 301 302 303 304 305 305 306 305 306 307 308 307 308 309 309 309 310 311 312 314 315 315 315 315 316 317 317 316 315 315 314 314 314 313 312 313 314 313 312 312 313 314 316 318 319 320 320 320 319 316 314 314 316 320 323 323 325 326 325 325 326 323 322 321 321 321 321 319 318 317 318 319 319
280 281 282 283 285 287 288 289 289 290 290 290 291 295 298 300 301 302 302 303 304 305 305 305 307 308 308 309 309 309 309 310 310 311 311 312 313 315 317 316 316 315 314 314 313 312 312 311 311 311 312 312 311 310 312 313 314 316 317 318 318 319 320 319 315 313 314 316 318 322 325 326 327 327 327 326 324 323 323 322 323 322 319 318 319 321 321 320
279 280 281 283 284 286 287 287 288 288 288 289 292 295 298 299 300 300 301 302 303 304 304 304 306 307 308 309 308 308 309 309 309 309 309 311 313 315 316 315 314 313 312 312 311 310 310 310 310 310 310 311 311 311 312 312 314 316 316 316 316 318 319 317 313 312 315 316 317 322 325 326 328 329 326 326 326 324 323 323 323 322 320 320 322 323 322 321
279 279 280 282 283 284 285 286 286 287 287 289 292 295 297 298 298 299 301 302 303 303 303 303 305 306 307 307 308 308 309 308 307 307 308 310 312 314 314 313 312 311 311 311 310 309 309 309 309 309 310 311 311 311 312 313 314 314 313 314 316 317 316 314 312 313 315 316 316 320 324 327 330 329 325 326 327 324 322 322 323 322 321 322 324 324 323 323
278 278 280 281 282 283 283 284 285 286 287 289 292 294 296 296 297 298 300 301 302 303 303 303 304 305 306 306 307 308 308 306 305 305 307 309 311 312 312 311 311 311 311 310 309 309 308 308 308 309 310 311 310 311 312 312 312 311 312 314 315 316 314 312 312 315 316 316 317 319 323 329 332 328 325 327 327 324 322 321 322 322 322 324 324 323 323 324
277 279 281 282 281 282 283 283 284 285 287 290 293 293 294 295 296 297 298 300 301 302 302 302 303 304 305 305 306 306 306 305 303 304 306 308 309 310 310 310 310 310 310 309 308 308 307 307 307 308 310 310 310 310 310 310 310 310 312 314 315 316 313 311 313 316 316 316 318 318 321 330 333 326 326 329 327 324 322 320 322 322 323 325 324 322 324 324
277 279 281 281 281 282 283 283 285 286 288 291 292 292 293 294 294 296 297 299 300 300 301 301 302 302 303 304 304 305 304 303 302 302 305 307 308 308 309 309 308 308 308 307 307 307 306 306 306 308 309 309 309 310 309 308 308 309 311 314 316 315 312 311 314 317 317 317 318 317 320 329 331 325 327 329 326 324 323 321 321 321 324 325 322 321 323 323
278 280 281 281 281 282 283 284 286 288 289 290 290 291 292 292 293 294 296 298 299 299 300 300 300 301 302 303 304 305 304 303 302 303 304 305 307 307 307 307 306 306 306 305 305 305 304 305 306 308 308 308 309 308 307 307 307 309 311 314 316 314 311 312 315 317 317 319 319 317 320 327 328 326 328 327 325 324 323 321 320 321 325 325 320 320 322 322
278 279 280 280 281 282 283 285 287 288 289 289 290 290 291 291 292 293 295 296 298 298 299 298 299 300 301 303 305 306 305 303 303 303 304 304 306 306 305 305 304 304 303 303 303 303 304 305 306 307 308 308 308 306 305 305 306 309 312 315 316 312 310 314 316 316 316 319 320 319 321 325 327 327 328 327 325 324 323 321 320 323 326 323 319 319 321 321
277 278 279 280 281 282 283 285 286 287 288 289 289 289 289 290 291 293 294 296 297 298 298 297 298 299 299 302 305 305 304 303 302 302 303 303 304 304 303 303 302 301 300 301 302 303 304 305 306 307 307 307 306 305 305 305 306 309 313 316 315 311 311 315 316 315 315 317 321 323 321 323 326 327 327 327 326 324 323 322 321 324 326 321 317 318 320 321
277 278 279 281 282 282 283 285 286 287 288 288 287 287 288 290 291 293 294 296 296 297 297 297 297 297 298 301 303 302 302 301 300 300 301 302 303 302 301 301 300 299 298 299 301 302 303 305 305 305 306 305 304 305 306 305 305 308 312 315 314 311 312 316 316 315 315 317 323 325 321 322 326 327 326 328 327 324 323 322 323 326 326 320 318 319 321 322
276 278 280 281 282 282 284 285 286 287 287 286 286 288 289 290 291 293 295 295 296 296 296 296 296 296 297 300 301 299 299 298 297 298 299 300 300 300 299 299 297 296 297 298 300 301 302 304 304 304 304 303 303 304 305 304 305 309 312 313 312 311 313 316 316 315 315 318 323 325 321 323 327 326 325 328 327 324 324 324 325 327 324 319 319 321 321 322
275 277 279 280 281 282 283 284 285 285 285 286 287 288 289 290 292 293 295 295 295 295 295 295 295 295 297 298 298 297 296 295 295 297 298 298 298 297 297 296 295 295 296 298 299 300 301 302 303 302 303 303 303 303 303 303 305 309 312 313 312 312 315 316 315 313 315 319 323 323 323 325 326 325 324 326 326 325 326 325 325 326 322 318 319 321 322 323
275 277 279 280 280 281 282 283 284 284 285 286 287 288 289 291 292 293 294 294 294 294 294 295 294 294 295 296 296 295 294 293 294 295 296 295 296 296 295 295 294 295 296 297 299 299 299 300 301 301 302 303 303 302 303 304 306 309 312 313 312 313 316 316 315 313 315 320 322 323 324 326 325 323 323 326 327 326 326 325 325 324 320 318 320 322 324 325
275 277 278 278 279 280 281 283 283 284 285 285 286 288 290 291 292 293 292 292 293 293 293 293 292 291 292 293 293 292 292 292 293 294 294 294 295 296 295 295 295 295 296 297 298 298 297 298 300 300 301 303 302 302 303 305 306 309 311 312 312 314 316 316 315 314 316 321 323 322 323 324 323 323 323 326 328 328 328 327 325 322 320 320 323 325 326 326
275 276 277 277 278 279 280 281 282 283 284 285 288 290 290 290 291 292 292 292 293 293 293 291 288 288 289 289 289 290 290 291 292 292 293 294 296 296 295 295 295 295 297 297 297 297 296 298 299 299 301 303 302 301 304 305 306 309 310 310 311 313 314 315 316 316 318 321 322 322 323 323 323 324 324 326 329 330 329 328 325 321 319 322 324 326 327 326
275 276 277 277 277 278 279 280 281 282 284 287 289 289 289 290 291 292 291 291 291 290 288 286 284 284 285 286 287 288 289 290 290 291 293 296 297 297 295 296 296 297 298 297 297 296 296 297 298 298 301 303 302 302 304 305 306 309 309 309 311 312 313 316 318 318 318 321 322 323 324 323 323 324 325 327 330 331 331 330 327 322 320 322 324 325 327 327
Height
5908 5907 5907 5907 5907 5907 5907 5906 5906 5905 5905 5904 5903 5902 5900 5898 5897 5895 5893 5892 5890 5888 5886 5884 5882 5879 5877 5874 5872 5870 5868 5867 5865 5864 5863 5863 5863 5862 5861 5861 5861 5860 5860 5860 5860 5858 5857 5856 5856 5857 5856 5856 5855 5854 5852 5850 5849 5848 5846 5845 5843 5841 5836 5833 5830 5827 5826 5825 5825 5824 5823 5822 5820 5818 5816 5813 5809 5805 5806 5803 5800 5798 5796 5795 5793 5792 5790 5788
5907 5907 5906 5906 5906 5906 5906 5906 5905 5905 5904 5903 5902 5900 5899 5897 5895 5894 5892 5890 5888 5886 5884 5882 5880 5878 5875 5873 5870 5868 5866 5865 5863 5862 5861 5861 5861 5860 5860 5859 5859 5859 5859 5858 5857 5856 5855 5855 5854 5854 5854 5854 5853 5852 5850 5849 5847 5846 5844 5842 5841 5840 5835 5831 5829 5824 5822 5821 5821 5820 5819 5818 5816 5816 5813 5811 5806 5801 5802 5801 5798 5796 5792 5790 5789 5788 5786 5783
5906 5906 5905 5905 5905 5905 5905 5905 5904 5904 5903 5902 5900 5899 5897 5896 5894 5892 5890 5889 5887 5885 5883 5880 5878 5876 5874 5871 5869 5867 5865 5863 5861 5860 5859 5858 5858 5858 5858 5857 5857 5857 5856 5856 5855 5854 5853 5853 5852 5852 5852 5851 5850 5849 5848 5846 5845 5843 5842 5840 5839 5838 5834 5830 5827 5823 5819 5817 5816 5816 5816 5814 5812 5811 5809 5807 5803 5799 5798 5797 5795 5794 5790 5787 5784 5782 5780 5778
5905 5905 5905 5904 5904 5904 5903 5903 5903 5903 5902 5900 5899 5898 5896 5894 5893 5891 5889 5888 5886 5884 5881 5879 5877 5874 5872 5870 5867 5865 5863 5861 5859 5858 5857 5856 5856 5856 5856 5855 5855 5855 5854 5854 5853 5852 5852 5851 5850 5850 5849 5849 5847 5846 5844 5843 5842 5841 5839 5837 5836 5835 5832 5828 5825 5821 5818 5815 5813 5812 5813 5812 5809 5807 5804 5802 5800 5798 5796 5793 5791 5790 5788 5785 5781 5777 5774 5772
5904 5904 5904 5903 5903 5903 5902 5902 5902 5901 5900 5899 5897 5896 5895 5893 5891 5890 5888 5886 5884 5882 5880 5877 5875 5873 5871 5868 5866 5864 5861 5859 5858 5856 5855 5854 5854 5854 5854 5853 5853 5853 5853 5852 5851 5850 5850 5849 5848 5847 5846 5846 5844 5843 5842 5841 5840 5838 5837 5835 5833 5832 5829 5826 5823 5819 5816 5812 5809 5808 5809 5809 5807 5804 5801 5797 5796 5794 5793 5790 5787 5785 5783 5781 5777 5773 5769 5766
5903 5903 5903 5902 5902 5902 5901 5900 5900 5899 5898 5897 5895 5894 5893 5891 5889 5888 5886 5884 5882 5880 5878 5876 5874 5871 5869 5866 5864 5862 5860 5858 5856 5854 5853 5853 5852 5852 5852 5851 5851 5851 5851 5850 5849 5848 5847 5846 5846 5844 5843 5843 5842 5840 5839 5838 5837 5836 5834 5833 5831 5830 5827 5823 5820 5817 5814 5810 5806 5804 5805 5805 5804 5802 5798 5794 5793 5791 5788 5786 5784 5781 5778 5775 5772 5768 5764 5761
5902 5902 5901 5901 5901 5900 5900 5899 5898 5897 5896 5895 5893 5892 5890 5889 5888 5886 5884 5882 5880 5878 5876 5874 5872 5869 5867 5865 5862 5860 5858 5856 5854 5853 5852 5851 5850 5850 5850 5849 5849 5849 5848 5848 5847 5846 5844 5843 5842 5842 5840 5840 5839 5838 5836 5835 5833 5833 5832 5830 5828 5827 5824 5820 5817 5814 5811 5808 5803 5800 5800 5801 5800 5799 5796 5792 5790 5788 5785 5782 5780 5777 5774 5770 5766 5762 5759 5756
5901 5900 5900 5900 5899 5899 5898 5897 5896 5895 5893 5892 5891 5890 5888 5887 5886 5884 5883 5881 5878 5876 5874 5872 5870 5867 5865 5863 5860 5858 5856 5855 5853 5852 5851 5850 5849 5848 5847 5847 5847 5846 5846 5845 5844 5843 5842 5841 5840 5839 5838 5837 5836 5835 5833 5832 5830 5830 5829 5828 5825 5823 5821 5817 5815 5812 5809 5806 5800 5797 5796 5797 5796 5795 5792 5789 5788 5785 5782 5779 5776 5773 5769 5765 5761 5756 5753 5750
5899 5899 5899 5898 5898 5897 5897 5895 5894 5893 5891 5890 5889 5887 5886 5884 5883 5882 5880 5879 5876 5874 5872 5870 5867 5865 5863 5861 5859 5856 5855 5853 5852 5850 5849 5848 5847 5846 5845 5845 5844 5844 5843 5843 5842 5841 5839 5838 5837 5836 5835 5834 5833 5832 5830 5829 5828 5827 5826 5824 5822 5820 5817 5814 5811 5809 5806 5804 5799 5795 5794 5793 5793 5792 5788 5786 5785 5782 5779 5775 5772 5769 5765 5761 5755 5750 5746 5745
5898 5898 5897 5897 5896 5895 5895 5893 5892 5891 5889 5888 5886 5885 5883 5882 5880 5879 5878 5876 5874 5872 5870 5867 5865 5862 5860 5859 5857 5854 5853 5851 5850 5849 5848 5846 5845 5844 5843 5843 5842 5842 5841 5840 5839 5838 5836 5835 5834 5833 5832 5831 5829 5828 5827 5826 5824 5823 5822 5820 5818 5816 5814 5812 5809 5806 5803 5801 5798 5793 5792 5792 5789 5787 5785 5783 5781 5779 5776 5772 5768 5764 5760 5756 5750 5744 5740 5739
5896 5896 5895 5895 5894 5893 5893 5891 5890 5889 5887 5886 5884 5883 5881 5879 5878 5876 5876 5874 5872 5870 5868 5865 5862 5860 5858 5856 5854 5852 5850 5849 5847 5846 5845 5844 5843 5842 5841 5840 5839 5839 5838 5837 5836 5834 5833 5831 5830 5829 5828 5827 5826 5825 5824 5822 5821 5820 5818 5816 5813 5811 5810 5808 5806 5803 5800 5797 5795 5791 5789 5792 5788 5783 5781 5779 5777 5774 5771 5767 5763 5759 5755 5750 5744 5738 5735 5734
5894 5894 5893 5893 5892 5891 5890 5889 5888 5887 5885 5883 5882 5880 5879 5877 5875 5874 5873 5872 5870 5868 5866 5863 5860 5858 5856 5854 5852 5850 5849 5847 5845 5844 5843 5841 5840 5839 5838 5837 5836 5836 5835 5834 5832 5831 5829 5828 5826 5826 5824 5823 5822 5821 5820 5818 5817 5815 5813 5811 5809 5807 5805 5804 5802 5799 5796 5794 5792 5788 5785 5789 5788 5781 5777 5774 5773 5770 5766 5762 5757 5754 5750 5744 5739 5735 5731 5730
5892 5891 5891 5890 5889 5889 5888 5887 5885 5884 5883 5881 5880 5878 5876 5874 5873 5871 5870 5869 5867 5865 5863 5861 5858 5856 5854 5852 5850 5848 5847 5845 5843 5842 5840 5839 5838 5836 5835 5834 5833 5832 5831 5830 5829 5827 5825 5824 5823 5822 5821 5820 5819 5817 5816 5814 5812 5810 5808 5807 5806 5804 5800 5798 5798 5795 5792 5790 5789 5785 5782 5785 5785 5780 5775 5770 5767 5765 5762 5756 5750 5747 5743 5739 5735 5731 5728 5726
5889 5889 5888 5888 5887 5886 5885 5884 5883 5881 5880 5878 5877 5876 5874 5872 5870 5869 5868 5867 5865 5863 5861 5858 5856 5854 5852 5850 5847 5846 5844 5843 5841 5839 5838 5837 5835 5834 5832 5831 5830 5829 5828 5827 5826 5824 5822 5821 5820 5819 5818 5817 5815 5813 5811 5809 5807 5805 5804 5802 5801 5801 5798 5793 5791 5791 5790 5787 5786 5784 5780 5782 5783 5778 5773 5766 5760 5757 5756 5751 5745 5740 5737 5734 5730 5726 5723 5721
5886 5886 5886 5885 5884 5883 5882 5881 5880 5878 5877 5875 5874 5873 5871 5870 5868 5867 5865 5864 5862 5860 5858 5856 5853 5851 5850 5848 5845 5843 5842 5840 5838 5837 5835 5834 5832 5830 5829 5828 5827 5826 5825 5824 5823 5821 5819 5818 5817 5816 5814 5812 5810 5808 5805 5803 5802 5800 5800 5799 5796 5795 5795 5790 5785 5785 5786 5783 5782 5780 5777 5779 5781 5777 5771 5763 5756 5751 5746 5743 5739 5734 5730 5728 5725 5721 5718 5715
5884 5883 5883 5883 5882 5880 5879 5878 5877 5875 5874 5873 5871 5869 5868 5867 5865 5864 5863 5861 5859 5857 5855 5853 5851 5849 5847 5845 5843 5841 5839 5837 5836 5834 5832 5831 5829 5827 5826 5825 5824 5823 5822 5821 5820 5818 5816 5815 5813 5811 5809 5807 5805 5803 5800 5798 5797 5796 5795 5794 5793 5790 5789 5788 5783 5780 5780 5779 5778 5776 5771 5772 5776 5774 5768 5760 5753 5748 5740 5733 5731 5727 5724 5722 5719 5717 5713 5709
5881 5880 5880 5880 5879 5878 5876 5875 5874 5872 5871 5870 5868 5867 5865 5864 5862 5861 5860 5858 5856 5854 5853 5851 5849 5847 5845 5843 5841 5839 5837 5835 5833 5832 5830 5828 5826 5824 5823 5822 5821 5820 5819 5818 5817 5815 5812 5810 5808 5806 5803 5802 5800 5798 5796 5794 5792 5791 5790 5789 5788 5786 5783 5782 5781 5777 5774 5773 5773 5773 5768 5766 5768 5766 5761 5755 5749 5746 5739 5729 5725 5722 5718 5716 5714 5711 5707 5704
5877 5877 5877 5876 5876 5875 5873 5872 5871 5869 5868 5866 5865 5864 5863 5861 5859 5858 5857 5855 5854 5852 5851 5849 5846 5843 5841 5839 5837 5836 5834 5832 5830 5829 5827 5825 5823 5822 5821 5819 5818 5817 5815 5814 5812 5810 5807 5805 5803 5800 5798 5796 5795 5793 5791 5789 5788 5786 5785 5784 5783 5782 5778 5773 5773 5772 5770 5767 5765 5766 5764 5762 5764 5760 5753 5749 5741 5736 5732 5725 5719 5717 5713 5710 5707 5704 5701 5698
5874 5874 5873 5873 5873 5871 5870 5869 5867 5866 5865 5863 5862 5861 5860 5858 5856 5856 5855 5853 5852 5850 5848 5846 5843 5840 5838 5836 5834 5832 5830 5829 5827 5826 5824 5822 5821 5819 5818 5816 5814 5813 5811 5809 5807 5805 5802 5800 5798 5796 5793 5792 5790 5788 5786 5784 5783 5781 5780 5778 5776 5777 5774 5767 5763 5762 5762 5762 5761 5759 5757 5757 5758 5753 5746 5744 5737 5728 5724 5720 5713 5711 5708 5704 5700 5697 5695 5691
5870 5870 5870 5869 5869 5868 5867 5865 5864 5863 5862 5861 5859 5858 5857 5856 5855 5855 5855 5852 5849 5847 5844 5842 5840 5838 5836 5833 5831 5829 5828 5826 5824 5822 5820 5819 5817 5815 5814 5812 5810 5808 5806 5804 5803 5801 5798 5796 5793 5791 5788 5786 5785 5783 5781 5778 5777 5775 5774 5772 5769 5768 5769 5764 5757 5754 5753 5752 5754 5753 5750 5751 5750 5744 5738 5735 5731 5722 5719 5716 5707 5704 5702 5696 5692 5688 5686 5683
5867 5867 5866 5866 5865 5865 5863 5862 5860 5859 5858 5857 5856 5854 5853 5852 5850 5849 5849 5847 5844 5842 5840 5837 5835 5834 5832 5830 5828 5826 5824 5822 5821 5819 5817 5815 5813 5811 5810 5808 5806 5804 5802 5800 5799 5797 5794 5791 5788 5785 5783 5781 5780 5777 5775 5772 5770 5769 5767 5765 5763 5760 5761 5761 5753 5747 5745 5742 5745 5745 5742 5745 5743 5735 5732 5727 5720 5714 5711 5709 5701 5697 5695 5690 5685 5680 5675 5673
5864 5863 5863 5862 5861 5861 5860 5858 5856 5855 5854 5853 5851 5850 5848 5846 5845 5843 5842 5841 5839 5837 5835 5832 5830 5829 5828 5827 5825 5823 5821 5818 5816 5814 5812 5810 5808 5806 5805 5803 5801 5799 5798 5796 5794 5792 5788 5785 5783 5780 5777 5775 5774 5772 5770 5767 5764 5762 5760 5758 5756 5753 5752 5756 5753 5744 5737 5732 5735 5736 5732 5736 5734 5725 5726 5718 5707 5704 5701 5699 5694 5688 5686 5682 5677 5671 5666 5661
5860 5859 5859 5858 5857 5857 5856 5854 5853 5851 5850 5849 5847 5845 5844 5842 5841 5839 5837 5835 5834 5832 5830 5828 5826 5824 5822 5821 5820 5819 5818 5816 5814 5812 5809 5806 5804 5802 5800 5799 5797 5795 5793 5791 5789 5787 5783 5780 5777 5775 5772 5770 5767 5765 5764 5762 5758 5755 5753 5751 5749 5746 5741 5744 5748 5745 5738 5725 5720 5722 5721 5726 5724 5717 5723 5714 5695 5692 5690 5685 5682 5678 5675 5672 5667 5661 5654 5649
5856 5856 5855 5854 5853 5853 5852 5850 5849 5848 5846 5845 5844 5841 5840 5838 5837 5835 5833 5831 5830 5828 5826 5824 5822 5820 5818 5816 5814 5813 5813 5812 5810 5808 5807 5804 5802 5800 5798 5795 5793 5791 5789 5787 5784 5782 5779 5775 5773 5770 5767 5765 5761 5758 5757 5755 5752 5747 5744 5743 5740 5739 5735 5731 5734 5735 5736 5726 5712 5708 5708 5716 5717 5707 5713 5708 5683 5678 5677 5670 5666 5662 5660 5658 5652 5646 5640 5634
5853 5852 5851 5850 5850 5849 5848 5846 5845 5844 5842 5841 5840 5838 5836 5834 5833 5831 5829 5827 5825 5824 5822 5820 5818 5817 5814 5813 5811 5809 5807 5806 5804 5802 5801 5800 5798 5795 5793 5791 5789 5786 5784 5782 5780 5777 5773 5770 5767 5764 5761 5759 5755 5752 5750 5747 5745 5741 5736 5734 5731 5730 5728 5725 5723 5719 5721 5719 5707 5698 5690 5695 5704 5700 5701 5696 5676 5668 5665 5657 5654 5648 5645 5644 5638 5633 5626 5620
5849 5848 5847 5846 5845 5845 5844 5843 5841 5840 5838 5837 5836 5834 5832 5830 5828 5827 5824 5822 5821 5819 5817 5815 5814 5813 5811 5809 5807 5806 5804 5802 5799 5797 5795 5793 5792 5790 5787 5785 5783 5781 5778 5776 5774 5771 5767 5764 5762 5759 5755 5752 5748 5745 5743 5740 5738 5734 5729 5727 5724 5722 5720 5717 5716 5710 5707 5706 5700 5693 5680 5674 5684 5688 5691 5688 5672 5666 5661 5651 5648 5641 5634 5630 5623 5618 5611 5604
5845 5844 5843 5842 5841 5841 5840 5839 5837 5836 5835 5833 5832 5830 5828 5827 5825 5823 5820 5818 5817 5814 5812 5811 5809 5807 5806 5805 5803 5802 5800 5798 5795 5793 5791 5788 5786 5784 5781 5779 5777 5775 5773 5769 5768 5764 5761 5758 5755 5752 5748 5745 5742 5738 5736 5733 5731 5728 5724 5721 5717 5714 5712 5707 5706 5703 5699 5696 5691 5689 5679 5667 5671 5674 5677 5677 5664 5658 5656 5646 5640 5632 5622 5615 5607 5601 5594 5587
5841 5840 5839 5838 5837 5837 5836 5835 5833 5832 5830 5829 5827 5826 5824 5822 5821 5819 5816 5813 5812 5810 5808 5807 5805 5803 5802 5800 5799 5798 5796 5793 5790 5787 5786 5783 5781 5778 5775 5774 5771 5770 5768 5765 5762 5759 5755 5752 5748 5745 5742 5738 5736 5732 5729 5726 5723 5720 5716 5713 5710 5706 5705 5700 5699 5699 5695 5690 5683 5681 5676 5665 5667 5669 5665 5664 5655 5646 5643 5635 5627 5619 5608 5601 5592 5584 5577 5570
5836 5835 5834 5834 5833 5832 5832 5830 5829 5828 5826 5824 5823 5821 5820 5818 5816 5815 5813 5810 5808 5806 5804 5802 5800 5799 5797 5796 5794 5793 5791 5788 5785 5782 5780 5778 5775 5773 5770 5768 5766 5765 5763 5760 5757 5753 5749 5747 5743 5739 5735 5732 5728 5724 5722 5719 5715 5714 5711 5708 5705 5701 5699 5695 5694 5695 5692 5687 5676 5671 5670 5658 5658 5663 5656 5649 5641 5631 5627 5621 5612 5604 5593 5584 5577 5569 5563 5557
5832 5831 5830 5829 5829 5828 5827 5826 5824 5824 5822 5820 5819 5817 5815 5814 5812 5811 5809 5806 5803 5801 5800 5798 5796 5794 5793 5791 5789 5788 5786 5783 5781 5777 5775 5772 5770 5768 5765 5763 5761 5759 5757 5754 5752 5747 5743 5741 5738 5734 5730 5726 5723 5719 5716 5713 5710 5708 5704 5703 5702 5698 5695 5691 5689 5689 5686 5683 5672 5665 5663 5651 5642 5645 5639 5631 5624 5617 5611 5604 5596 5589 5580 5572 5565 5558 5550 5542
5827 5826 5825 5825 5824 5824 5823 5821 5820 5819 5817 5816 5814 5812 5811 5809 5808 5807 5804 5801 5798 5797 5796 5793 5791 5790 5788 5787 5785 5783 5781 5778 5776 5773 5771 5769 5766 5764 5761 5758 5756 5754 5752 5749 5746 5743 5739 5736 5734 5730 5726 5721 5717 5714 5710 5705 5702 5701 5697 5694 5693 5692 5691 5686 5683 5682 5677 5674 5669 5661 5658 5650 5640 5634 5627 5619 5612 5606 5599 5590 5582 5574 5568 5562 5553 5545 5537 5529
5822 5821 5820 5820 5820 5819 5818 5816 5815 5814 5812 5811 5809 5807 5806 5804 5804 5804 5800 5796 5793 5791 5790 5788 5786 5785 5783 5782 5780 5778 5775 5772 5771 5768 5766 5764 5762 5759 5756 5754 5751 5749 5746 5743 5740 5737 5734 5732 5728 5724 5720 5714 5710 5707 5703 5697 5693 5692 5690 5686 5680 5678 5678 5675 5672 5670 5667 5665 5663 5656 5647 5642 5638 5628 5618 5611 5603 5597 5591 5580 5571 5563 5555 5549 5541 5535 5531 5525
5816 5815 5815 5815 5815 5814 5813 5812 5810 5809 5807 5806 5804 5802 5801 5799 5799 5799 5795 5791 5788 5786 5785 5783 5781 5780 5778 5776 5774 5772 5769 5766 5765 5762 5760 5758 5755 5753 5750 5747 5745 5743 5740 5736 5732 5729 5727 5726 5723 5719 5714 5708 5703 5700 5697 5691 5685 5681 5681 5678 5671 5667 5665 5664 5662 5658 5655 5656 5660 5656 5641 5634 5633 5621 5610 5605 5597 5590 5583 5571 5563 5556 5548 5540 5534 5529 5524 5518
5810 5810 5810 5809 5809 5808 5807 5806 5805 5804 5802 5800 5799 5796 5795 5795 5795 5793 5790 5787 5783 5781 5780 5778 5776 5775 5773 5771 5769 5767 5763 5760 5758 5756 5754 5751 5748 5745 5743 5741 5739 5736 5733 5730 5727 5724 5721 5720 5718 5713 5710 5705 5698 5694 5691 5685 5679 5674 5673 5671 5667 5663 5657 5654 5653 5647 5642 5645 5653 5655 5644 5633 5630 5620 5609 5604 5596 5585 5574 5564 5557 5549 5542 5535 5527 5520 5513 5506
5805 5804 5804 5804 5804 5803 5802 5801 5800 5798 5796 5795 5793 5791 5791 5791 5790 5787 5784 5781 5778 5775 5774 5772 5770 5769 5767 5765 5764 5761 5758 5754 5752 5750 5747 5744 5741 5738 5736 5734 5732 5729 5727 5724 5721 5718 5715 5714 5713 5708 5704 5701 5693 5687 5686 5680 5673 5668 5665 5662 5658 5656 5653 5648 5645 5638 5631 5631 5637 5642 5639 5633 5628 5619 5611 5605 5595 5582 5568 5558 5551 5542 5534 5527 5517 5510 5502 5494
5799 5799 5799 5799 5798 5797 5796 5795 5793 5792 5790 5789 5786 5786 5788 5787 5784 5782 5778 5775 5773 5770 5768 5766 5765 5763 5761 5759 5757 5755 5752 5748 5746 5744 5740 5738 5735 5733 5731 5728 5726 5723 5720 5718 5715 5713 5710 5707 5706 5703 5700 5698 5689 5680 5678 5676 5671 5664 5660 5656 5651 5648 5646 5639 5632 5627 5624 5622 5625 5628 5626 5625 5622 5613 5608 5604 5590 5577 5565 5553 5545 5536 5525 5517 5509 5502 5493 5484
5793 5793 5793 5793 5792 5791 5790 5788 5787 5785 5784 5782 5780 5781 5783 5781 5779 5776 5772 5770 5769 5766 5763 5760 5759 5757 5754 5753 5751 5748 5746 5742 5740 5737 5735 5732 5729 5727 5726 5722 5720 5718 5715 5712 5709 5707 5706 5702 5698 5696 5693 5692 5688 5679 5671 5668 5666 5661 5656 5652 5647 5643 5640 5630 5615 5611 5613 5612 5613 5619 5615 5608 5606 5595 5588 5587 5576 5562 5554 5544 5536 5528 5515 5506 5500 5493 5483 5475
5787 5787 5787 5787 5786 5785 5784 5781 5780 5778 5777 5775 5775 5777 5777 5776 5773 5770 5767 5765 5763 5761 5758 5756 5753 5751 5749 5747 5745 5742 5740 5737 5734 5731 5728 5726 5723 5721 5719 5716 5714 5712 5708 5707 5703 5700 5699 5697 5693 5691 5687 5682 5679 5676 5669 5662 5660 5656 5651 5648 5644 5639 5636 5628 5611 5600 5602 5599 5596 5607 5611 5601 5597 5586 5571 5567 5559 5544 5536 5530 5523 5515 5503 5493 5488 5481 5471 5465
5780 5780 5781 5781 5780 5779 5777 5775 5773 5771 5770 5770 5770 5771 5771 5770 5767 5764 5762 5760 5758 5755 5753 5751 5748 5745 5743 5741 5739 5737 5735 5731 5728 5725 5722 5719 5717 5715 5713 5710 5707 5706 5702 5700 5698 5694 5691 5689 5685 5683 5682 5677 5670 5667 5663 5657 5654 5652 5647 5644 5641 5636 5630 5623 5612 5600 5594 5589 5583 5591 5601 5597 5591 5582 5567 5556 5546 5530 5517 5513 5510 5501 5491 5483 5476 5469 5461 5455
5773 5773 5774 5776 5774 5772 5770 5768 5767 5765 5764 5765 5766 5765 5764 5762 5760 5758 5756 5754 5752 5750 5747 5745 5743 5740 5738 5735 5733 5731 5728 5725 5723 5719 5716 5713 5711 5709 5707 5704 5701 5699 5697 5693 5691 5689 5685 5683 5679 5675 5674 5671 5665 5661 5658 5653 5648 5644 5641 5638 5635 5633 5624 5614 5610 5603 5591 5581 5574 5574 5583 5588 5583 5572 5561 5550 5537 5523 5507 5499 5497 5490 5482 5477 5469 5461 5455 5449
5765 5765 5768 5769 5766 5764 5763 5761 5760 5759 5758 5759 5760 5759 5757 5755 5754 5752 5751 5749 5747 5744 5741 5740 5738 5735 5732 5729 5728 5725 5722 5719 5717 5713 5710 5708 5705 5702 5700 5697 5694 5692 5690 5687 5684 5683 5679 5676 5675 5672 5668 5663 5659 5656 5652 5649 5644 5637 5633 5630 5626 5623 5614 5604 5603 5604 5594 5580 5571 5564 5565 5575 5573 5559 5551 5543 5531 5518 5503 5491 5487 5481 5476 5471 5462 5455 5451 5445
5757 5758 5761 5760 5757 5757 5755 5754 5754 5753 5753 5754 5754 5752 5750 5748 5747 5746 5745 5743 5741 5738 5736 5733 5731 5728 5725 5723 5721 5719 5715 5712 5710 5707 5704 5702 5699 5696 5693 5691 5688 5686 5684 5681 5678 5676 5673 5669 5668 5668 5664 5657 5654 5650 5645 5642 5639 5634 5629 5625 5621 5614 5603 5594 5592 5593 5591 5582 5572 5561 5556 5563 5563 5549 5539 5534 5524 5513 5500 5487 5479 5474 5471 5465 5455 5450 5447 5441
5750 5751 5753 5751 5749 5749 5747 5746 5747 5747 5747 5747 5746 5745 5743 5741 5740 5739 5739 5737 5734 5732 5729 5726 5724 5721 5719 5717 5714 5712 5708 5705 5703 5702 5698 5696 5693 5690 5687 5684 5682 5680 5677 5674 5672 5669 5666 5662 5660 5661 5659 5653 5649 5645 5639 5635 5632 5629 5626 5620 5615 5607 5595 5590 5586 5580 5579 5578 5568 5553 5546 5552 5554 5543 5533 5526 5515 5507 5498 5486 5475 5468 5465 5459 5450 5444 5442 5437
5743 5743 5743 5743 5742 5742 5740 5740 5741 5740 5740 5739 5739 5738 5736 5733 5733 5732 5732 5730 5728 5725 5722 5718 5716 5714 5712 5710 5707 5705 5701 5697 5695 5695 5692 5689 5687 5684 5681 5678 5676 5674 5670 5667 5665 5662 5659 5655 5651 5651 5650 5647 5643 5639 5633 5629 5625 5623 5622 5616 5608 5598 5589 5586 5582 5572 5568 5571 5565 5547 5535 5539 5542 5535 5528 5520 5507 5498 5491 5482 5472 5464 5459 5452 5443 5439 5436 5432
5734 5734 5734 5735 5735 5734 5733 5734 5734 5732 5733 5732 5730 5730 5728 5725 5726 5726 5724 5723 5721 5718 5714 5710 5709 5707 5705 5703 5700 5697 5694 5691 5688 5687 5685 5683 5680 5678 5674 5672 5670 5667 5664 5661 5658 5654 5652 5649 5645 5641 5638 5635 5633 5631 5625 5619 5617 5618 5618 5614 5603 5589 5582 5579 5576 5568 5561 5563 5565 5549 5529 5527 5532 5526 5520 5514 5501 5489 5482 5474 5465 5460 5454 5445 5436 5434 5431 5426
5726 5725 5725 5727 5727 5726 5726 5727 5726 5725 5726 5724 5720 5721 5720 5718 5718 5719 5717 5715 5714 5710 5705 5702 5701 5700 5698 5695 5692 5689 5687 5684 5681 5679 5678 5676 5674 5671 5667 5665 5663 5660 5657 5655 5652 5647 5644 5643 5640 5636 5632 5626 5622 5623 5617 5608 5607 5611 5613 5613 5602 5586 5578 5574 5567 5560 5554 5552 5558 5552 5530 5518 5520 5515 5508 5505 5495 5482 5473 5463 5454 5450 5445 5435 5429 5427 5425 5421
5717 5716 5719 5719 5717 5717 5717 5719 5719 5717 5717 5714 5710 5711 5712 5710 5710 5710 5709 5707 5705 5701 5697 5694 5693 5692 5690 5687 5684 5681 5679 5676 5675 5672 5670 5668 5666 5663 5661 5658 5655 5653 5651 5648 5645 5641 5637 5636 5634 5630 5627 5621 5615 5615 5611 5600 5598 5601 5603 5605 5599 5587 5579 5573 5563 5554 5548 5542 5544 5544 5531 5515 5510 5505 5497 5493 5485 5473 5464 5454 5444 5440 5433 5423 5420 5419 5417 5414
5709 5709 5713 5712 5708 5709 5709 5710 5711 5708 5706 5705 5703 5702 5702 5702 5703 5702 5700 5698 5695 5693 5688 5685 5685 5684 5681 5679 5675 5673 5671 5669 5667 5665 5662 5659 5657 5655 5653 5651 5648 5645 5643 5641 5639 5634 5630 5630 5628 5624 5622 5617 5609 5607 5604 5595 5590 5592 5592 5592 5588 5582 5577 5572 5562 5552 5546 5541 5535 5530 5523 5514 5504 5496 5489 5485 5477 5465 5457 5448 5439 5435 5427 5417 5413 5412 5409 5407
5702 5702 5705 5703 5700 5701 5701 5701 5701 5698 5697 5697 5694 5693 5694 5694 5695 5694 5691 5688 5686 5684 5681 5678 5678 5676 5672 5670 5667 5665 5664 5662 5659 5657 5654 5651 5649 5648 5645 5643 5641 5638 5636 5633 5631 5627 5624 5623 5622 5618 5617 5613 5605 5598 5595 5589 5584 5583 5584 5581 5576 5572 5570 5565 5556 5546 5541 5540 5534 5523 5516 5511 5503 5492 5483 5481 5474 5464 5456 5446 5436 5430 5422 5414 5410 5405 5402 5399
5695 5696 5697 5693 5690 5692 5692 5692 5691 5689 5689 5688 5685 5686 5688 5686 5686 5685 5682 5680 5677 5675 5673 5671 5670 5668 5664 5662 5660 5658 5658 5655 5651 5649 5647 5644 5642 5640 5637 5635 5633 5631 5629 5626 5623 5620 5616 5616 5615 5612 5611 5610 5601 5592 5587 5583 5577 5575 5577 5574 5568 5565 5563 5558 5549 5539 5533 5532 5529 5521 5513 5508 5503 5493 5483 5477 5471 5461 5452 5442 5432 5424 5416 5410 5405 5400 5396 5394
5687 5688 5688 5683 5680 5684 5684 5682 5681 5680 5679 5679 5678 5680 5679 5677 5677 5676 5671 5670 5669 5666 5665 5664 5662 5660 5657 5654 5653 5651 5649 5647 5644 5643 5641 5637 5636 5633 5630 5628 5626 5623 5621 5618 5615 5612 5608 5607 5607 5604 5603 5605 5597 5586 5582 5577 5570 5567 5567 5565 5562 5559 5557 5554 5546 5533 5525 5523 5520 5514 5508 5501 5494 5487 5477 5471 5464 5455 5446 5436 5425 5415 5408 5404 5400 5394 5390 5387
5680 5678 5679 5674 5670 5673 5675 5672 5673 5672 5671 5673 5673 5671 5669 5668 5669 5666 5661 5660 5661 5658 5657 5657 5654 5652 5650 5648 5647 5644 5641 5639 5638 5636 5633 5631 5629 5626 5622 5621 5619 5615 5613 5610 5606 5604 5601 5599 5599 5596 5594 5597 5592 5581 5577 5572 5564 5560 5558 5554 5553 5551 5548 5547 5543 5531 5522 5517 5511 5504 5499 5491 5484 5477 5468 5461 5456 5449 5440 5430 5417 5405 5396 5392 5391 5388 5384 5380